Date String (YYYY-MM-DD hh:mm:ss) UTC,Instrument flags,absolute air pressure of the measurement (hPa),sample flow rate (lpm),inlet stack bypass flow (lpm),air temperature of the measurement (°C),ambient temperature measured by the external sensor (°C),aerosol sample conditioner tube jacket temperature (°C),OPC LED temperature (°C),internal box temperature (°C),relative humidity of the measurement (%),span deviation,mass concentration of particles derived from Lorenz-Mie calculation of OPC scattering (μg/m³),mass concentration of particles derived from Lorenz-Mie calculation of OPC scattering (μg/m³),mass concentration of particles derived from Lorenz-Mie calculation of OPC scattering (μg/m³)
DateTimeUTC,F1_M11,P_M11,Q1_M11,Q2_M11,T1_M11,T2_M11,T3_M11,T4_M11,T5_M11,U1_M11,ZSPAN_M11,X0_M11,X2_M11,X1_M11
2023-10-04 03:00:00,SystemResetWarning,0828.6,5.00,000.00,028.9,027.3,000.0,037.4,030.3,11.5,0000.0,0003.71,0001.63,0001.33
2023-10-04 03:01:00,SystemResetWarning,0828.6,5.00,000.00,028.8,027.3,000.0,037.4,030.3,11.4,0000.0,0003.67,0001.61,0001.31
2023-10-04 03:02:00,SystemResetWarning,0828.6,5.00,000.00,028.8,027.3,000.0,037.4,030.3,11.5,0000.0,0003.95,0001.59,0001.30
2023-10-04 03:03:00,SystemResetWarning,0828.6,5.00,000.00,028.8,027.3,000.0,037.4,030.3,11.5,0000.0,0003.97,0001.58,0001.29
2023-10-04 03:04:00,SystemResetWarning,0828.6,5.00,000.00,028.8,027.3,000.0,037.4,030.3,11.6,0000.0,0003.65,0001.57,0001.30
2023-10-04 03:05:00,SystemResetWarning,0828.7,5.00,000.00,028.8,027.3,000.0,037.4,030.3,11.6,0000.0,0002.94,0001.59,0001.31
2023-10-04 03:06:00,SystemResetWarning,0828.6,5.00,000.00,028.8,027.3,000.0,037.3,030.2,11.7,0000.0,0002.81,0001.58,0001.31
2023-10-04 03:07:00,SystemResetWarning,0828.6,5.00,000.00,028.8,027.3,000.0,037.3,030.2,11.8,0000.0,0002.71,0001.56,0001.31
2023-10-04 03:08:00,SystemResetWarning,0828.6,5.00,000.00,028.8,027.3,000.0,037.3,030.3,11.7,0000.0,0002.87,0001.61,0001.32
2023-10-04 03:09:00,SystemResetWarning,0828.6,5.00,000.00,028.8,027.4,000.0,037.3,030.3,11.7,0000.0,0002.95,0001.64,0001.32
2023-10-04 03:10:00,SystemResetWarning,0828.7,5.00,000.00,028.8,027.4,000.0,037.3,030.4,11.7,0000.0,0002.99,0001.66,0001.33
2023-10-04 03:11:00,SystemResetWarning,0828.7,5.00,000.00,028.8,027.5,000.0,037.3,030.4,11.8,0000.0,0003.02,0001.68,0001.33
2023-10-04 03:12:00,SystemResetWarning,0828.6,5.00,000.00,028.8,027.5,000.0,037.3,030.4,11.7,0000.0,0003.28,0001.70,0001.34
2023-10-04 03:13:00,SystemResetWarning,0828.6,5.00,000.00,028.8,027.5,000.0,037.3,030.4,11.7,0000.0,0003.51,0001.72,0001.36
2023-10-04 03:14:00,SystemResetWarning,0828.6,5.00,000.00,028.8,027.5,000.0,037.3,030.4,11.7,0000.0,0003.56,0001.73,0001.38
2023-10-04 03:15:00,SystemResetWarning,0828.6,5.00,000.00,028.8,027.5,000.0,037.3,030.4,11.8,0000.0,0003.49,0001.72,0001.38
2023-10-04 03:16:00,SystemResetWarning,0828.6,5.00,000.00,028.9,027.5,000.0,037.3,030.4,11.8,0000.0,0003.41,0001.68,0001.38
2023-10-04 03:17:00,SystemResetWarning,0828.6,5.00,000.00,028.9,027.6,000.0,037.3,030.5,12.0,0000.0,0003.42,0001.67,0001.38
2023-10-04 03:18:00,SystemResetWarning,0828.6,5.00,000.00,028.9,027.6,000.0,037.3,030.5,12.0,0000.0,0003.46,0001.67,0001.38
2023-10-04 03:19:00,SystemResetWarning,0828.6,4.99,000.00,028.9,027.6,000.0,037.3,030.5,12.0,0000.0,0003.40,0001.62,0001.37
2023-10-04 03:20:00,SystemResetWarning,0828.5,5.00,000.00,028.9,027.7,000.0,037.3,030.5,12.0,0000.0,0003.77,0001.63,0001.36
2023-10-04 03:21:00,SystemResetWarning,0828.5,5.00,000.00,028.9,027.7,000.0,037.4,030.5,12.1,0000.0,0003.91,0001.64,0001.36
2023-10-04 03:22:00,SystemResetWarning,0828.6,4.99,000.00,028.9,027.7,000.0,037.4,030.6,12.1,0000.0,0003.92,0001.63,0001.36
2023-10-04 03:23:00,SystemResetWarning,0828.6,5.00,000.00,029.0,027.7,000.0,037.4,030.6,12.2,0000.0,0003.95,0001.64,0001.36
2023-10-04 03:24:00,SystemResetWarning,0828.6,5.00,000.00,029.0,027.7,000.0,037.4,030.6,12.1,0000.0,0003.23,0001.65,0001.36
2023-10-04 03:25:00,SystemResetWarning,0828.6,5.00,000.00,029.0,027.7,000.0,037.4,030.6,12.1,0000.0,0003.16,0001.66,0001.38
2023-10-04 03:26:00,SystemResetWarning,0828.6,5.00,000.00,029.0,027.8,000.0,037.4,030.6,12.0,0000.0,0003.10,0001.67,0001.39
2023-10-04 03:27:00,SystemResetWarning,0828.6,5.00,000.00,029.0,027.8,000.0,037.4,030.6,11.9,0000.0,0003.12,0001.70,0001.39
2023-10-04 03:28:00,SystemResetWarning,0828.6,5.00,000.00,029.0,027.8,000.0,037.4,030.7,11.8,0000.0,0003.20,0001.71,0001.39
2023-10-04 03:29:00,SystemResetWarning,0828.6,5.00,000.00,029.0,027.8,000.0,037.4,030.7,11.8,0000.0,0003.23,0001.70,0001.39
2023-10-04 03:30:00,SystemResetWarning,0828.6,5.00,000.00,029.0,027.8,000.0,037.4,030.7,11.9,0000.0,0003.20,0001.72,0001.40
2023-10-04 03:31:00,SystemResetWarning,0828.6,5.00,000.00,029.0,027.8,000.0,037.4,030.6,11.8,0000.0,0002.77,0001.68,0001.40
2023-10-04 03:32:00,SystemResetWarning,0828.6,5.00,000.00,029.0,027.8,000.0,037.4,030.6,11.8,0000.0,0002.67,0001.67,0001.40
2023-10-04 03:33:00,SystemResetWarning,0828.6,5.00,000.00,029.0,027.7,000.0,037.4,030.5,11.8,0000.0,0002.72,0001.68,0001.40
2023-10-04 03:34:00,SystemResetWarning,0828.6,5.00,000.00,029.0,027.7,000.0,037.4,030.6,11.8,0000.0,0002.66,0001.67,0001.41
2023-10-04 03:35:00,SystemResetWarning,0828.6,5.00,000.00,029.0,027.7,000.0,037.4,030.6,11.8,0000.0,0003.13,0001.65,0001.40
2023-10-04 03:36:00,SystemResetWarning,0828.6,5.00,000.00,029.0,027.7,000.0,037.4,030.6,11.8,0000.0,0003.84,0001.64,0001.38
2023-10-04 03:37:00,SystemResetWarning,0828.6,5.00,000.00,029.0,027.8,000.0,037.4,030.7,11.8,0000.0,0003.85,0001.64,0001.36
2023-10-04 03:38:00,SystemResetWarning,0828.6,5.00,000.00,029.0,027.8,000.0,037.5,030.7,11.8,0000.0,0003.83,0001.62,0001.35
2023-10-04 03:39:00,SystemResetWarning,0828.7,5.00,000.00,029.1,027.8,000.0,037.5,030.7,11.8,0000.0,0003.72,0001.61,0001.35
2023-10-04 03:40:00,SystemResetWarning,0828.7,5.00,000.00,029.1,027.8,000.0,037.5,030.7,11.9,0000.0,0003.66,0001.60,0001.35
2023-10-04 03:41:00,SystemResetWarning,0828.7,5.00,000.00,029.1,027.9,000.0,037.5,030.7,11.8,0000.0,0003.79,0001.61,0001.35
2023-10-04 03:42:00,SystemResetWarning,0828.7,5.00,000.00,029.1,027.8,000.0,037.5,030.7,11.8,0000.0,0003.78,0001.62,0001.34
2023-10-04 03:43:00,SystemResetWarning,0828.7,4.98,000.00,029.1,026.3,000.0,037.5,030.6,11.8,0000.0,0003.71,0001.61,0001.34
2023-10-04 03:44:00,SystemResetWarning,0828.6,5.01,000.00,029.0,024.7,000.0,037.4,030.4,11.8,0000.0,0003.95,0001.61,0001.34
2023-10-04 03:45:00,SystemResetWarning,0828.7,5.01,000.00,028.9,024.5,000.0,037.4,030.2,11.9,0000.0,0004.46,0001.61,0001.32
2023-10-04 03:46:00,SystemResetWarning,0828.7,4.99,000.00,028.7,024.8,000.0,037.3,030.0,12.0,0000.0,0005.25,0001.62,0001.31
2023-10-04 03:47:00,SystemResetWarning,0828.7,5.00,000.00,028.7,025.1,000.0,037.3,030.0,12.1,0000.0,0004.47,0001.62,0001.32
2023-10-04 03:48:00,SystemResetWarning,0828.8,5.01,000.00,028.6,025.5,000.0,037.3,030.0,12.0,0000.0,0004.28,0001.60,0001.32
2023-10-04 03:49:00,SystemResetWarning,0828.8,5.00,000.00,028.6,025.8,000.0,037.2,030.0,12.1,0000.0,0004.30,0001.61,0001.33
2023-10-04 03:50:00,SystemResetWarning,0828.7,5.00,000.00,028.6,026.1,000.0,037.2,030.0,12.2,0000.0,0004.31,0001.63,0001.33
2023-10-04 03:51:00,SystemResetWarning,0828.7,5.00,000.00,028.6,026.3,000.0,037.2,030.1,12.2,0000.0,0004.29,0001.62,0001.33
2023-10-04 03:52:00,SystemResetWarning,0828.7,5.01,000.00,028.6,026.5,000.0,037.2,030.1,12.2,0000.0,0004.10,0001.61,0001.33
2023-10-04 03:53:00,SystemResetWarning,0828.8,5.00,000.00,028.6,026.6,000.0,037.2,030.1,12.2,0000.0,0004.08,0001.59,0001.32
2023-10-04 03:54:00,SystemResetWarning,0828.7,4.99,000.00,028.6,026.7,000.0,037.1,030.1,12.2,0000.0,0004.12,0001.60,0001.33
2023-10-04 03:55:00,SystemResetWarning,0828.7,5.00,000.00,028.6,026.8,000.0,037.1,030.1,12.2,0000.0,0003.85,0001.58,0001.34
2023-10-04 03:56:00,SystemResetWarning,0828.6,5.00,000.00,028.6,026.9,000.0,037.1,030.1,12.2,0000.0,0003.34,0001.59,0001.36
2023-10-04 03:57:00,SystemResetWarning,0828.6,4.99,000.00,028.6,026.9,000.0,037.1,030.2,12.2,0000.0,0002.32,0001.59,0001.36
2023-10-04 03:58:00,SystemResetWarning,0828.6,5.00,000.00,028.6,027.0,000.0,037.1,030.2,12.2,0000.0,0002.25,0001.62,0001.38
2023-10-04 03:59:00,SystemResetWarning,0828.6,5.01,000.00,028.6,027.0,000.0,037.1,030.2,12.2,0000.0,0002.28,0001.65,0001.38
